Location: Lango�lan
(48.1202°N, 3.2340°W)
Time: 19:58:54
(UTC+00:00)

Cosmos 614 Rocket - Pass Details

Date: 23 October 2019
Orbit: 734 x 763 km, 74.1° (Epoch: 14 November)

Event Time Altitude Azimuth Distance (km) Brightness Sun altitude
Exits shadow 04:52:04 36° 283° (WNW) 1,185 4.5 -19.3°
Maximum altitude 04:52:46 38° 301° (WNW) 1,149 4.5 -19.1°
Drops below altitude 10° 04:57:37 10° 10° (N) 2,294 6.6 -18.3°
Sets 05:00:09 0° 18° (NNE) 3,219 7.5 -17.9°
